• In Belarus
  • List of Countries
  • For 7 days
  • Water Temperature
  • Satellite Maps
  • Weather Map
  • Weather Widgets
  • user-avatar
    Login

    Hourly Weather Cochabamba

    Today, 18 October, Thursday

    Time Temperature Precipitation Wind Pressure Humidity
    00:00 +17°C° 0.2 mm 2 mps 554 mmHg 71%
    01:00 +17°C° 0.2 mm 2 mps 554 mmHg 71%
    02:00 +17°C° 0 mm 2 mps 554 mmHg 72%
    03:00 +16°C° 0.3 mm 1 mps 554 mmHg 72%
    04:00 +16°C° 0.3 mm 1 mps 554 mmHg 71%
    05:00 +16°C° 0.3 mm 1 mps 553 mmHg 71%
    06:00 +18°C° 0.2 mm 1 mps 554 mmHg 66%
    07:00 +19°C° 0.2 mm 1 mps 555 mmHg 60%
    08:00 +20°C° 0 mm 1 mps 557 mmHg 55%
    09:00 +22°C° 0.3 mm 1 mps 557 mmHg 50%
    10:00 +23°C° 0.3 mm 2 mps 558 mmHg 46%
    11:00 +24°C° 0.3 mm 2 mps 558 mmHg 42%
    12:00 +24°C° 0.5 mm 2 mps 558 mmHg 44%
    13:00 +25°C° 0.5 mm 3 mps 557 mmHg 45%
    14:00 +25°C° 0.5 mm 4 mps 557 mmHg 47%
    15:00 +23°C° 0.8 mm 4 mps 556 mmHg 50%
    16:00 +22°C° 0.8 mm 4 mps 556 mmHg 54%
    17:00 +22°C° 0.8 mm 4 mps 555 mmHg 57%
    18:00 +21°C° 0.6 mm 3 mps 555 mmHg 61%
    19:00 +20°C° 0.6 mm 3 mps 555 mmHg 65%
    20:00 +19°C° 0.6 mm 2 mps 555 mmHg 69%
    21:00 +18°C° 0.7 mm 2 mps 555 mmHg 68%
    22:00 +18°C° 0.7 mm 2 mps 556 mmHg 68%
    23:00 +19°C° 0.7 mm 1 mps 556 mmHg 67%

    Tomorrow, 19 October, Friday

    Time Temperature Precipitation Wind Pressure Humidity
    00:00 +19°C° 0.4 mm 1 mps 556 mmHg 68%
    01:00 +18°C° 0.4 mm 1 mps 555 mmHg 68%
    02:00 +18°C° 0.4 mm 1 mps 555 mmHg 69%
    03:00 +18°C° 0.1 mm 1 mps 555 mmHg 69%
    04:00 +18°C° 0.1 mm 1 mps 554 mmHg 69%
    05:00 +16°C° 0.1 mm 1 mps 554 mmHg 68%
    06:00 +18°C° 0.1 mm 1 mps 555 mmHg 65%
    07:00 +19°C° 0.1 mm 1 mps 555 mmHg 62%
    08:00 +17°C° 0.1 mm 0 mps 556 mmHg 59%
    09:00 +20°C° 0.4 mm 1 mps 556 mmHg 56%
    10:00 +21°C° 0.4 mm 1 mps 556 mmHg 53%
    11:00 +22°C° 0.4 mm 1 mps 557 mmHg 50%
    12:00 +23°C° 0.7 mm 2 mps 556 mmHg 50%
    13:00 +23°C° 0.7 mm 2 mps 556 mmHg 50%
    14:00 +24°C° 0.7 mm 3 mps 556 mmHg 50%
    15:00 +22°C° 1.3 mm 3 mps 555 mmHg 54%
    16:00 +21°C° 1.3 mm 4 mps 555 mmHg 59%
    17:00 +20°C° 1.3 mm 4 mps 554 mmHg 63%
    18:00 +19°C° 1.4 mm 3 mps 555 mmHg 66%
    19:00 +18°C° 1.4 mm 3 mps 555 mmHg 70%
    20:00 +17°C° 1.4 mm 2 mps 555 mmHg 73%
    21:00 +17°C° 0.9 mm 2 mps 555 mmHg 75%
    22:00 +16°C° 0.9 mm 2 mps 556 mmHg 76%
    23:00 +16°C° 0.9 mm 2 mps 556 mmHg 78%

    Day after tomorrow, 20 October, Saturday

    Time Temperature Precipitation Wind Pressure Humidity
    00:00 +16°C° 0.7 mm 2 mps 555 mmHg 77%
    01:00 +16°C° 0.7 mm 1 mps 555 mmHg 77%
    02:00 +16°C° 0.7 mm 1 mps 555 mmHg 76%
    03:00 +16°C° 0.1 mm 1 mps 555 mmHg 76%
    04:00 +16°C° 0.1 mm 1 mps 554 mmHg 75%
    05:00 +15°C° 0.1 mm 1 mps 554 mmHg 75%
    06:00 +16°C° 0 mm 1 mps 555 mmHg 73%
    07:00 +16°C° 0 mm 1 mps 556 mmHg 71%
    08:00 +18°C° 0 mm 1 mps 556 mmHg 69%
    09:00 +19°C° 0.1 mm 1 mps 557 mmHg 65%
    10:00 +20°C° 0.1 mm 1 mps 557 mmHg 62%
    11:00 +20°C° 0.1 mm 1 mps 558 mmHg 58%
    12:00 +20°C° 0.6 mm 2 mps 557 mmHg 58%
    13:00 +20°C° 0.6 mm 2 mps 556 mmHg 57%
    14:00 +21°C° 0.6 mm 3 mps 556 mmHg 57%
    15:00 +20°C° 0.7 mm 3 mps 555 mmHg 59%
    16:00 +20°C° 0.7 mm 3 mps 555 mmHg 61%
    17:00 +19°C° 0.7 mm 3 mps 554 mmHg 63%
    18:00 +19°C° 0.2 mm 2 mps 554 mmHg 65%
    19:00 +18°C° 0.2 mm 2 mps 555 mmHg 68%
    20:00 +18°C° 0.2 mm 1 mps 555 mmHg 71%
    21:00 +18°C° 0 mm 1 mps 555 mmHg 72%
    22:00 +16°C° 0 mm 2 mps 555 mmHg 73%
    23:00 +16°C° 0 mm 2 mps 555 mmHg 74%

    21 October, Sunday

    Time Temperature Precipitation Wind Pressure Humidity
    00:00 +16°C° 0 mm 1 mps 554 mmHg 74%
    01:00 +16°C° 0 mm 1 mps 554 mmHg 74%
    02:00 +15°C° 0 mm 1 mps 553 mmHg 75%
    03:00 +15°C° 0 mm 1 mps 553 mmHg 76%
    04:00 +14°C° 0 mm 0 mps 553 mmHg 77%
    05:00 +14°C° 0 mm 0 mps 553 mmHg 79%
    06:00 +14°C° 0 mm 0 mps 554 mmHg 75%
    07:00 +15°C° 0 mm 0 mps 555 mmHg 71%
    08:00 +16°C° 0 mm 0 mps 556 mmHg 66%
    09:00 +19°C° 0.1 mm 1 mps 556 mmHg 63%
    10:00 +20°C° 0.1 mm 1 mps 557 mmHg 60%
    11:00 +19°C° 0.1 mm 2 mps 557 mmHg 57%
    12:00 +20°C° 0.2 mm 2 mps 556 mmHg 56%
    13:00 +20°C° 0.2 mm 2 mps 556 mmHg 55%
    14:00 +21°C° 0.2 mm 2 mps 555 mmHg 54%
    15:00 +21°C° 0.2 mm 3 mps 555 mmHg 56%
    16:00 +21°C° 0.2 mm 3 mps 554 mmHg 57%
    17:00 +20°C° 0.2 mm 3 mps 554 mmHg 59%
    18:00 +19°C° 0.2 mm 3 mps 554 mmHg 63%
    19:00 +18°C° 0.2 mm 2 mps 554 mmHg 67%
    20:00 +17°C° 0.2 mm 2 mps 554 mmHg 71%
    21:00 +17°C° 0 mm 2 mps 554 mmHg 72%
    22:00 +18°C° 0 mm 1 mps 554 mmHg 73%
    23:00 +16°C° 0 mm 1 mps 555 mmHg 74%

    22 October, Monday

    Time Temperature Precipitation Wind Pressure Humidity
    00:00 +16°C° 0 mm 1 mps 554 mmHg 74%
    01:00 +16°C° 0 mm 1 mps 554 mmHg 74%
    02:00 +16°C° 0 mm 1 mps 553 mmHg 75%
    03:00 +16°C° 0 mm 1 mps 553 mmHg 75%
    04:00 +15°C° 0 mm 1 mps 553 mmHg 76%
    05:00 +15°C° 0 mm 1 mps 553 mmHg 76%
    06:00 +16°C° 0.1 mm 1 mps 554 mmHg 72%
    07:00 +16°C° 0.1 mm 1 mps 555 mmHg 69%
    08:00 +18°C° 0.1 mm 1 mps 556 mmHg 65%
    09:00 +19°C° 0.3 mm 1 mps 556 mmHg 61%
    10:00 +20°C° 0.3 mm 1 mps 556 mmHg 58%
    11:00 +20°C° 0.3 mm 2 mps 556 mmHg 54%
    12:00 +20°C° 0.5 mm 2 mps 556 mmHg 54%
    13:00 +20°C° 0.5 mm 3 mps 555 mmHg 55%
    14:00 +20°C° 0.5 mm 3 mps 555 mmHg 56%
    15:00 +20°C° 0.4 mm 3 mps 554 mmHg 58%
    16:00 +19°C° 0.4 mm 3 mps 554 mmHg 61%
    17:00 +19°C° 0.4 mm 3 mps 553 mmHg 64%
    18:00 +18°C° 0.2 mm 3 mps 553 mmHg 67%
    19:00 +17°C° 0.2 mm 3 mps 554 mmHg 70%
    20:00 +16°C° 0.2 mm 3 mps 554 mmHg 73%
    21:00 +16°C° 0.1 mm 2 mps 554 mmHg 73%
    22:00 +16°C° 0.1 mm 2 mps 554 mmHg 73%
    23:00 +15°C° 0.1 mm 2 mps 554 mmHg 73%

    23 October, Tuesday

    Time Temperature Precipitation Wind Pressure Humidity
    00:00 +15°C° 0.1 mm 2 mps 554 mmHg 72%
    01:00 +15°C° 0.1 mm 2 mps 553 mmHg 71%
    02:00 +15°C° 0.1 mm 1 mps 552 mmHg 71%
    03:00 +15°C° 0 mm 1 mps 552 mmHg 71%
    04:00 +15°C° 0 mm 1 mps 552 mmHg 71%
    05:00 +14°C° 0 mm 1 mps 552 mmHg 71%
    06:00 +16°C° 0.1 mm 1 mps 553 mmHg 67%
    07:00 +17°C° 0.1 mm 2 mps 554 mmHg 64%
    08:00 +18°C° 0.1 mm 2 mps 555 mmHg 60%
    09:00 +18°C° 0.3 mm 2 mps 555 mmHg 59%
    10:00 +19°C° 0.3 mm 3 mps 555 mmHg 57%
    11:00 +20°C° 0.3 mm 3 mps 555 mmHg 55%
    12:00 +20°C° 0.9 mm 4 mps 555 mmHg 57%
    13:00 +20°C° 0.9 mm 4 mps 554 mmHg 58%
    14:00 +20°C° 0.9 mm 4 mps 554 mmHg 59%
    15:00 +20°C° 1.7 mm 4 mps 553 mmHg 62%
    16:00 +19°C° 1.7 mm 4 mps 553 mmHg 64%
    17:00 +18°C° 1.7 mm 4 mps 553 mmHg 66%
    18:00 +18°C° 1.4 mm 3 mps 553 mmHg 69%
    19:00 +17°C° 1.4 mm 3 mps 553 mmHg 71%
    20:00 +16°C° 1.4 mm 2 mps 554 mmHg 74%
    21:00 +16°C° 0.8 mm 2 mps 554 mmHg 75%
    22:00 +16°C° 0.8 mm 2 mps 554 mmHg 76%
    23:00 +15°C° 0.8 mm 2 mps 554 mmHg 77%
    Show more